Вернуться в каталог

ARIANE 5 DEB

SYLDA

АктивенGTO
NORAD 32390·DEBRIS·🇫🇷 France

Запущен Dec 21, 2007 с Guiana Space Centre

Loading…

TLE

УстаревающийSource: Space-Track

Эпоха: Sep 14, 2026, 06:15 UTC

1 32390U 07063D   26257.26095090 -.00000096  00000-0 -61671-3 0  9997
2 32390   5.3283 127.2355 7161093 305.0920 307.6507  2.27011796154723

Отслеживайте ARIANE 5 DEB в реальном времени с AllMySat

Download on the App Store